Time,TemperatureF,DewpointF,PressureIn,WindDirection,WindDirectionDegrees,WindSpeedMPH,WindSpeedGustMPH,Humidity,HourlyPrecipIn,Conditions,Clouds,dailyrainin,SoftwareType,DateUTC
2013-03-24 00:02:00,28.0,19.0,-100.00,NNE,25,0.0,0.0,71,0.00,,,-99.99,,2013-03-24 05:02:00,
2013-03-24 00:12:00,28.0,19.0,-100.00,NNE,25,0.0,0.0,71,0.00,,,-99.99,,2013-03-24 05:12:00,
2013-03-24 00:22:00,28.0,19.0,-100.00,NNE,25,0.0,0.0,71,0.00,,,-99.99,,2013-03-24 05:22:00,
2013-03-24 00:52:00,28.0,21.0,-100.00,NNE,20,1.0,2.0,74,0.00,,,-99.99,,2013-03-24 05:52:00,
2013-03-24 01:02:00,28.0,21.0,-100.00,NNE,20,1.0,2.0,74,0.00,,,-99.99,,2013-03-24 06:02:00,
2013-03-24 01:12:00,28.0,21.0,-100.00,NNE,20,1.0,2.0,74,0.00,,,-99.99,,2013-03-24 06:12:00,
2013-03-24 01:22:00,28.0,21.0,-100.00,NNE,20,1.0,2.0,74,0.00,,,-99.99,,2013-03-24 06:22:00,
2013-03-24 01:30:00,28.0,21.0,-100.00,NE,50,2.0,2.0,73,0.00,,,-99.99,,2013-03-24 06:30:00,
2013-03-24 01:52:00,28.0,21.0,-100.00,NE,50,2.0,2.0,73,0.00,,,-99.99,,2013-03-24 06:52:00,
2013-03-24 02:02:00,28.0,21.0,-100.00,NE,50,2.0,2.0,73,0.00,,,-99.99,,2013-03-24 07:02:00,
2013-03-24 02:12:00,28.0,21.0,-100.00,NE,50,2.0,2.0,73,0.00,,,-99.99,,2013-03-24 07:12:00,
2013-03-24 02:22:00,28.0,21.0,-100.00,NE,50,2.0,2.0,73,0.00,,,-99.99,,2013-03-24 07:22:00,
2013-03-24 02:30:00,28.0,22.0,-100.00,NE,55,1.0,5.0,76,0.00,,,-99.99,,2013-03-24 07:30:00,
2013-03-24 02:52:00,28.0,22.0,-100.00,NE,55,1.0,5.0,76,0.00,,,-99.99,,2013-03-24 07:52:00,
2013-03-24 03:03:00,28.0,22.0,-100.00,NE,55,1.0,5.0,76,0.00,,,-99.99,,2013-03-24 08:03:00,
2013-03-24 03:12:00,28.0,22.0,-100.00,NE,55,1.0,5.0,76,0.00,,,-99.99,,2013-03-24 08:12:00,
2013-03-24 03:22:00,28.0,22.0,-100.00,NE,55,1.0,5.0,76,0.00,,,-99.99,,2013-03-24 08:22:00,
2013-03-24 03:52:00,29.0,22.0,-100.00,NNE,20,4.0,5.0,76,0.00,,,-99.99,,2013-03-24 08:52:00,
2013-03-24 04:02:00,29.0,22.0,-100.00,NNE,20,4.0,5.0,76,0.00,,,-99.99,,2013-03-24 09:02:00,
2013-03-24 04:12:00,29.0,22.0,-100.00,NNE,20,4.0,5.0,76,0.00,,,-99.99,,2013-03-24 09:12:00,
2013-03-24 04:22:00,29.0,22.0,-100.00,NNE,20,4.0,5.0,76,0.00,,,-99.99,,2013-03-24 09:22:00,
2013-03-24 04:31:00,29.0,22.0,-100.00,North,5,3.0,6.0,78,0.00,,,-99.99,,2013-03-24 09:31:00,
2013-03-24 04:52:00,29.0,22.0,-100.00,North,5,3.0,6.0,78,0.00,,,-99.99,,2013-03-24 09:52:00,
2013-03-24 05:03:00,29.0,22.0,-100.00,North,5,3.0,6.0,78,0.00,,,-99.99,,2013-03-24 10:03:00,
2013-03-24 05:12:00,29.0,22.0,-100.00,North,5,3.0,6.0,78,0.00,,,-99.99,,2013-03-24 10:12:00,
2013-03-24 05:22:00,29.0,22.0,-100.00,North,5,3.0,6.0,78,0.00,,,-99.99,,2013-03-24 10:22:00,
2013-03-24 05:52:00,29.0,22.0,-100.00,NNE,20,5.0,8.0,76,0.00,,,-99.99,,2013-03-24 10:52:00,
2013-03-24 06:03:00,29.0,22.0,-100.00,NNE,20,5.0,8.0,76,0.00,,,-99.99,,2013-03-24 11:03:00,
2013-03-24 06:12:00,29.0,22.0,-100.00,NNE,20,5.0,8.0,76,0.00,,,-99.99,,2013-03-24 11:12:00,
2013-03-24 06:22:00,29.0,22.0,-100.00,NNE,20,5.0,8.0,76,0.00,,,-99.99,,2013-03-24 11:22:00,
2013-03-24 06:52:00,29.0,22.0,-100.00,NNE,30,6.0,9.0,76,0.00,,,-99.99,,2013-03-24 11:52:00,
2013-03-24 07:03:00,29.0,22.0,-100.00,NNE,30,6.0,9.0,76,0.00,,,-99.99,,2013-03-24 12:03:00,
2013-03-24 07:12:00,29.0,22.0,-100.00,NNE,30,6.0,9.0,76,0.00,,,-99.99,,2013-03-24 12:12:00,
2013-03-24 07:22:00,29.0,22.0,-100.00,NNE,30,6.0,9.0,76,0.00,,,-99.99,,2013-03-24 12:22:00,
2013-03-24 07:32:00,29.0,23.0,-100.00,NE,55,12.0,17.0,79,0.00,,,-99.99,,2013-03-24 12:32:00,
2013-03-24 07:52:00,29.0,23.0,-100.00,NE,55,12.0,17.0,79,0.00,,,-99.99,,2013-03-24 12:52:00,
2013-03-24 08:02:00,29.0,23.0,-100.00,NE,55,12.0,17.0,79,0.00,,,-99.99,,2013-03-24 13:02:00,
2013-03-24 08:12:00,29.0,23.0,-100.00,NE,55,12.0,17.0,79,0.00,,,-99.99,,2013-03-24 13:12:00,
2013-03-24 08:22:00,29.0,23.0,-100.00,NE,55,12.0,17.0,79,0.00,,,-99.99,,2013-03-24 13:22:00,
2013-03-24 08:52:00,29.0,24.0,-100.00,NE,50,9.0,16.0,84,0.03,,,-99.99,,2013-03-24 13:52:00,
2013-03-24 09:02:00,29.0,24.0,-100.00,NE,50,9.0,16.0,84,0.03,,,-99.99,,2013-03-24 14:02:00,
2013-03-24 09:12:00,29.0,24.0,-100.00,NE,50,9.0,16.0,84,0.03,,,-99.99,,2013-03-24 14:12:00,
2013-03-24 09:22:00,29.0,24.0,-100.00,NE,50,9.0,16.0,84,0.03,,,-99.99,,2013-03-24 14:22:00,
2013-03-24 09:30:00,28.0,25.0,-100.00,NNE,25,7.0,15.0,87,0.01,,,-99.99,,2013-03-24 14:30:00,
2013-03-24 09:52:00,28.0,25.0,-100.00,NNE,25,7.0,15.0,87,0.01,,,-99.99,,2013-03-24 14:52:00,
2013-03-24 10:02:00,28.0,25.0,-100.00,NNE,25,7.0,15.0,87,0.01,,,-99.99,,2013-03-24 15:02:00,
2013-03-24 10:12:00,28.0,25.0,-100.00,NNE,25,7.0,15.0,87,0.01,,,-99.99,,2013-03-24 15:12:00,
2013-03-24 10:22:00,28.0,25.0,-100.00,NNE,25,7.0,15.0,87,0.01,,,-99.99,,2013-03-24 15:22:00,
2013-03-24 10:32:00,28.0,25.0,-100.00,NE,55,7.0,13.0,87,0.03,,,-99.99,,2013-03-24 15:32:00,
2013-03-24 10:53:00,28.0,25.0,-100.00,NE,55,7.0,13.0,87,0.03,,,-99.99,,2013-03-24 15:53:00,
2013-03-24 11:03:00,28.0,25.0,-100.00,NE,55,7.0,13.0,87,0.03,,,-99.99,,2013-03-24 16:03:00,
2013-03-24 11:12:00,28.0,25.0,-100.00,NE,55,7.0,13.0,87,0.03,,,-99.99,,2013-03-24 16:12:00,
2013-03-24 11:23:00,28.0,25.0,-100.00,NE,55,7.0,13.0,87,0.03,,,-99.99,,2013-03-24 16:23:00,
2013-03-24 11:32:00,28.0,26.0,-100.00,NE,35,5.0,14.0,91,0.06,,,-99.99,,2013-03-24 16:32:00,
2013-03-24 11:52:00,28.0,26.0,-100.00,NE,35,5.0,14.0,91,0.06,,,-99.99,,2013-03-24 16:52:00,
2013-03-24 12:02:00,28.0,26.0,-100.00,NE,35,5.0,14.0,91,0.06,,,-99.99,,2013-03-24 17:02:00,
2013-03-24 12:12:00,28.0,26.0,-100.00,NE,35,5.0,14.0,91,0.06,,,-99.99,,2013-03-24 17:12:00,
2013-03-24 12:23:00,28.0,26.0,-100.00,NE,35,5.0,14.0,91,0.06,,,-99.99,,2013-03-24 17:23:00,
2013-03-24 12:31:00,28.0,26.0,-100.00,NNE,25,11.0,17.0,90,0.03,,,-99.99,,2013-03-24 17:31:00,
2013-03-24 12:53:00,28.0,26.0,-100.00,NNE,25,11.0,17.0,90,0.03,,,-99.99,,2013-03-24 17:53:00,
2013-03-24 13:03:00,28.0,26.0,-100.00,NNE,25,11.0,17.0,90,0.03,,,-99.99,,2013-03-24 18:03:00,
2013-03-24 13:12:00,28.0,26.0,-100.00,NNE,25,11.0,17.0,90,0.03,,,-99.99,,2013-03-24 18:12:00,
2013-03-24 13:22:00,28.0,26.0,-100.00,NNE,25,11.0,17.0,90,0.03,,,-99.99,,2013-03-24 18:22:00,
2013-03-24 13:32:00,31.0,23.0,-100.00,North,10,13.0,21.0,74,0.00,,,-99.99,,2013-03-24 18:32:00,
2013-03-24 13:52:00,31.0,23.0,-100.00,North,10,13.0,21.0,74,0.00,,,-99.99,,2013-03-24 18:52:00,
2013-03-24 14:02:00,31.0,23.0,-100.00,North,10,13.0,21.0,74,0.00,,,-99.99,,2013-03-24 19:02:00,
2013-03-24 14:12:00,31.0,23.0,-100.00,North,10,13.0,21.0,74,0.00,,,-99.99,,2013-03-24 19:12:00,
2013-03-24 14:22:00,31.0,23.0,-100.00,North,10,13.0,21.0,74,0.00,,,-99.99,,2013-03-24 19:22:00,
2013-03-24 14:32:00,31.0,26.0,-100.00,NNE,30,11.0,19.0,81,0.00,,,-99.99,,2013-03-24 19:32:00,
2013-03-24 14:53:00,31.0,26.0,-100.00,NNE,30,11.0,19.0,81,0.00,,,-99.99,,2013-03-24 19:53:00,
2013-03-24 15:03:00,31.0,26.0,-100.00,NNE,30,11.0,19.0,81,0.00,,,-99.99,,2013-03-24 20:03:00,
2013-03-24 15:12:00,31.0,26.0,-100.00,NNE,30,11.0,19.0,81,0.00,,,-99.99,,2013-03-24 20:12:00,
2013-03-24 15:22:00,31.0,26.0,-100.00,NNE,30,11.0,19.0,81,0.00,,,-99.99,,2013-03-24 20:22:00,
2013-03-24 15:31:00,32.0,20.0,-100.00,NE,35,10.0,20.0,61,0.00,,,-99.99,,2013-03-24 20:31:00,
2013-03-24 15:53:00,32.0,20.0,-100.00,NE,35,10.0,20.0,61,0.00,,,-99.99,,2013-03-24 20:53:00,
2013-03-24 16:02:00,32.0,20.0,-100.00,NE,35,10.0,20.0,61,0.00,,,-99.99,,2013-03-24 21:02:00,
2013-03-24 16:12:00,32.0,20.0,-100.00,NE,35,10.0,20.0,61,0.00,,,-99.99,,2013-03-24 21:12:00,
2013-03-24 16:22:00,32.0,20.0,-100.00,NE,35,10.0,20.0,61,0.00,,,-99.99,,2013-03-24 21:22:00,
2013-03-24 16:32:00,32.0,21.0,-100.00,NNE,15,10.0,14.0,63,0.00,,,-99.99,,2013-03-24 21:32:00,
2013-03-24 16:53:00,32.0,21.0,-100.00,NNE,15,10.0,14.0,63,0.00,,,-99.99,,2013-03-24 21:53:00,
2013-03-24 17:03:00,32.0,21.0,-100.00,NNE,15,10.0,14.0,63,0.00,,,-99.99,,2013-03-24 22:03:00,
2013-03-24 17:13:00,32.0,21.0,-100.00,NNE,15,10.0,14.0,63,0.00,,,-99.99,,2013-03-24 22:13:00,
2013-03-24 17:23:00,32.0,21.0,-100.00,NNE,15,10.0,14.0,63,0.00,,,-99.99,,2013-03-24 22:23:00,
2013-03-24 17:32:00,32.0,21.0,-100.00,NNE,30,7.0,15.0,62,0.00,,,-99.99,,2013-03-24 22:32:00,
2013-03-24 17:53:00,32.0,21.0,-100.00,NNE,30,7.0,15.0,62,0.00,,,-99.99,,2013-03-24 22:53:00,
2013-03-24 18:03:00,32.0,21.0,-100.00,NNE,30,7.0,15.0,62,0.00,,,-99.99,,2013-03-24 23:03:00,
2013-03-24 18:12:00,32.0,21.0,-100.00,NNE,30,7.0,15.0,62,0.00,,,-99.99,,2013-03-24 23:12:00,
2013-03-24 18:22:00,32.0,21.0,-100.00,NNE,30,7.0,15.0,62,0.00,,,-99.99,,2013-03-24 23:22:00,
2013-03-24 18:53:00,32.0,20.0,-100.00,NNE,25,10.0,17.0,59,0.00,,,-99.99,,2013-03-24 23:53:00,
2013-03-24 19:02:00,32.0,20.0,-100.00,NNE,25,10.0,17.0,59,0.00,,,-99.99,,2013-03-25 00:02:00,
2013-03-24 19:12:00,32.0,20.0,-100.00,NNE,25,10.0,17.0,59,0.00,,,-99.99,,2013-03-25 00:12:00,
2013-03-24 19:22:00,32.0,20.0,-100.00,NNE,25,10.0,17.0,59,0.00,,,-99.99,,2013-03-25 00:22:00,
2013-03-24 19:32:00,32.0,20.0,-100.00,NNE,25,10.0,17.0,59,0.00,,,-99.99,,2013-03-25 00:32:00,
2013-03-24 19:53:00,32.0,18.0,-100.00,NE,40,4.0,14.0,57,0.00,,,-99.99,,2013-03-25 00:53:00,
2013-03-24 20:02:00,32.0,18.0,-100.00,NE,40,4.0,14.0,57,0.00,,,-99.99,,2013-03-25 01:02:00,
2013-03-24 20:12:00,32.0,18.0,-100.00,NE,40,4.0,14.0,57,0.00,,,-99.99,,2013-03-25 01:12:00,
2013-03-24 20:22:00,32.0,18.0,-100.00,NE,40,4.0,14.0,57,0.00,,,-99.99,,2013-03-25 01:22:00,
2013-03-24 20:32:00,32.0,18.0,-100.00,NE,40,4.0,14.0,57,0.00,,,-99.99,,2013-03-25 01:32:00,
2013-03-24 21:02:00,31.0,19.0,-100.00,North,0,4.0,7.0,61,0.00,,,-99.99,,2013-03-25 02:02:00,
2013-03-24 21:12:00,31.0,19.0,-100.00,North,0,4.0,7.0,61,0.00,,,-99.99,,2013-03-25 02:12:00,
2013-03-24 21:22:00,31.0,19.0,-100.00,North,0,4.0,7.0,61,0.00,,,-99.99,,2013-03-25 02:22:00,
2013-03-24 21:32:00,31.0,19.0,-100.00,North,0,4.0,7.0,61,0.00,,,-99.99,,2013-03-25 02:32:00,
2013-03-24 21:52:00,32.0,19.0,-100.00,NNE,15,11.0,17.0,59,0.00,,,-99.99,,2013-03-25 02:52:00,
2013-03-24 22:02:00,32.0,18.0,-100.00,NE,35,12.0,22.0,58,0.00,,,-99.99,,2013-03-25 03:02:00,
2013-03-24 22:13:00,32.0,18.0,-100.00,NE,35,12.0,22.0,58,0.00,,,-99.99,,2013-03-25 03:13:00,
2013-03-24 22:22:00,32.0,18.0,-100.00,NE,35,12.0,22.0,58,0.00,,,-99.99,,2013-03-25 03:22:00,
2013-03-24 22:33:00,32.0,18.0,-100.00,NE,35,12.0,22.0,58,0.00,,,-99.99,,2013-03-25 03:33:00,
2013-03-24 23:02:00,31.0,18.0,-100.00,NNE,30,6.0,14.0,59,0.00,,,-99.99,,2013-03-25 04:02:00,
2013-03-24 23:12:00,31.0,18.0,-100.00,NNE,30,6.0,14.0,59,0.00,,,-99.99,,2013-03-25 04:12:00,
2013-03-24 23:22:00,31.0,18.0,-100.00,NNE,30,6.0,14.0,59,0.00,,,-99.99,,2013-03-25 04:22:00,
2013-03-24 23:33:00,31.0,18.0,-100.00,NNE,30,6.0,14.0,59,0.00,,,-99.99,,2013-03-25 04:33:00,
2013-03-24 23:52:00,30.0,18.0,-100.00,NNE,30,11.0,17.0,59,0.00,,,-99.99,,2013-03-25 04:52:00,